User: anonymous   Login
Location: Oulou
(10.7667°N, 12.5167°W)
Time: 01:25:51
(UTC+00:00)
Language:

Cosmos 405 Rocket - Orbit

View from above orbital plane
View from above orbital plane
View from above satellite
View from above satellite

Ground track
Ground track

The orbit data is extracted from the following two-line orbital elements,

1  5118U 71028B   19315.51969990  .00000541  00000-0  27315-4 0  9992
2  5118  81.2569 227.6976 0046213 214.0662 145.7599 15.14427767636968
Epoch (UTC): 11 November 2019 12:28:22
Eccentricity: 0.0046213
inclination: 81.2569°
perigee height: 491 km
apogee height: 554 km
right ascension of ascending node: 227.6976°
argument of perigee: 214.0662°
revolutions per day: 15.14427767
mean anomaly at epoch: 145.7599°
orbit number at epoch: 63696

The dashed part of the orbit path shows where the satellite is in the earth's shadow,  

DLR